TITAN 3C TRANSTAGE DEB, 59983

Orbit data source: Space-Track

TITAN 3C TRANSTAGE DEB, 59983 is space debris in GEO originally from a launch on Thu, 26 Sep 1968 UTC launched from the Air Force Eastern Test Range (AFETR). Debris objects in space refer to the collection of defunct objects orbiting the Earth. Examples of debris include non-operational satellites, rocket bodies, and fragments generated from explosions, collisions, or faulty payload assembly.

Loading next visibility...
Identifier
59983, 1968-081AR
Orbit
GEO
Country
Flag of USUS
Related business
Manufacturer
Unknown
Mission
Spacecraft
Bus & Motor
Unknown
Mass
Unknown
Launch date (UTC)
1968-09-26 (58 years ago)
Launch vehicle
Unknown
Launch site
Air Force Eastern Test Range (AFETR)
Object type
Payload
Rocket body
Debris
Shape & HBR
Unknown shape, 1.1 m
Radar Cross Section
RCS unknown

Expand to show TLE details & history
Last TLE update: 1 day ago

TLE from 1 day ago
0 TITAN 3C TRANSTAGE DEB
1 59983U 68081AR  26111.01779926 -.00000002  00000-0  00000-0 0  9992
2 59983   2.5808  59.0764 0213405   9.6342 350.6462  1.02072931  7377
Epoch: 2026-04-21T00:25Z
TLE epoch observation values (Epoch: 2026-04-21T00:25:37.856Z)
Latitude
-0.00001°
Longitude
-156.5491°
Altitude
34,409.713 km
Speed
3.159 km/s
True Right ascension
03h 55m 49s
True Declination
0° 00' 00"
Sunlit
Object was in daylight at epoch
Visualization orbit readout
Latitude
Unknown
Longitude
Unknown
Altitude
Unknown
Speed
Unknown
Apparent Right ascension
Unknown
Apparent Declination
Unknown
Sunlit
N/A
Visualization observer readout
Local Sidereal Time
18:40:25
Azimuth
Unknown
Elevation
Unknown
Doppler factor
Unknown
Orbital elements
Apogee altitude
36,179.411 km
Perigee altitude
34,400.965 km
Semi-major axis
41,668.325 km
Eccentricity
0.02134
Inclination
2.5808°
RAAN
59.0764°
Arg. of periapsis
9.6342°
True anomaly
350.23801°
Mean anomaly
350.6462°
Eccentric anomaly
350.4432°
Mean motion
0.25517 °/min
Orbital period
1,410.81 mins
BSTAR
0
Loading maneuver chart data...
Computing Atmospheric mass density...

Documentation

Showing up to 5 results
|